Location: The Jewett Observatory
(46.7288°N, 117.1525°W)
Time: 15:04:01
(UTC-07:00)

Daily predictions for brighter satellites

Satellite Brightness Start Highest point End
(mag) Time Altitude Azimuth Time Altitude Azimuth Time Altitude Azimuth
Cosmos 2219 3.8 21:19:52 10° S 21:25:08 39° ESE 21:30:25 10° NE
Meteor 2-20 Rocket 4.5 21:21:21 10° S 21:27:29 73° E 21:33:37 10° NNE
SPOT 5 2.8 21:24:42 10° SSE 21:29:17 89° ENE 21:34:11 10° NNW
Cosmos 2237 Rocket 3.7 21:25:22 10° N 21:30:04 25° NE 21:34:43 10° ESE
Cosmos 2058 3.6 21:26:40 10° SSE 21:30:25 36° E 21:34:12 10° NNE
Cosmos 2322 3.9 21:25:11 10° NNW 21:30:56 75° WSW 21:36:37 10° SSE
PSLV R/B 3.1 21:27:58 10° SSE 21:31:02 87° ENE 21:34:06 10° NNW
Cosmos 2315 Rocket 4.1 21:25:09 10° N 21:31:21 66° ENE 21:37:30 10° SSE
Cosmos 2266 Rocket 4.0 21:25:49 10° S 21:32:07 83° E 21:38:20 10° N
Cosmos 1805 Rocket 4.2 21:28:35 10° SSE 21:32:43 38° E 21:36:51 10° NNE
Cosmos 2322 Rocket 4.0 21:28:13 10° NW 21:32:52 27° WSW 21:37:29 10° SSW
NOSS 3-1 (A) 4.4 21:28:03 10° SSE 21:32:53 26° ESE 21:38:04 10° ENE
Cosmos 1437 2.8 21:33:40 10° S 21:36:56 66° E 21:40:12 10° NNE
Cosmos 1908 4.1 21:36:04 10° NNW 21:39:51 49° W 21:43:38 10° S
Meteor 1-4 Rocket 3.9 21:37:48 10° N 21:41:06 28° ENE 21:44:12 11° SE
Cosmos 2360 Rocket 2.7 21:37:08 10° NNW 21:42:41 60° WSW 21:48:14 10° S
Cosmos 304 Rocket 4.2 21:38:16 10° NNW 21:43:02 62° WSW 21:47:46 10° S
SL-16 R/B 4.2 21:39:12 10° NW 21:43:40 24° WSW 21:48:07 10° SSW
Envisat 3.7 21:39:05 10° S 21:44:04 55° W 21:49:04 10° NNW
Cosmos 1707 Rocket 3.6 21:43:58 10° N 21:48:19 64° ENE 21:52:39 10° SSE
NOAA 11 4.4 21:43:59 10° SSE 21:49:19 63° ENE 21:54:45 10° N
H-2A R/B 3.6 21:45:13 10° SSW 21:49:23 35° W 21:53:33 10° NNW
Cosmos 2112 Rocket 4.3 21:47:51 10° NNW 21:53:03 65° WSW 21:58:15 10° S
Aureole 3 4.3 21:46:52 10° S 21:53:29 85° E 21:58:44 10° N
MetOp-B 4.4 21:48:15 10° S 21:53:36 73° WSW 21:58:59 10° NNW
Cosmos 1674 3.7 21:50:57 10° SSW 21:54:40 48° WNW 21:58:27 10° N
Cosmos 1666 Rocket 3.9 21:50:51 10° SSE 21:55:04 48° E 21:59:21 10° NNE
ATLAS 2AS CENTAUR R/B 4.2 21:50:45 10° SSE 21:55:45 20° ESE 22:01:04 10° ENE
Cosmos 1626 4.2 21:55:19 11° ESE 21:57:04 14° E 21:59:03 10° NE
Meteor 2-11 Rocket 4.5 21:55:14 10° N 22:01:26 79° E 22:07:30 10° SSE
Cosmos 2298 Rocket 4.3 21:56:39 10° S 22:01:46 50° ESE 22:06:55 10° NNE
Cosmos 1300 2.7 21:59:33 10° N 22:03:25 87° W 22:07:01 12° S
Cosmos 1937 Rocket 4.2 22:00:07 10° SSE 22:04:42 33° ESE 22:09:20 10° NE
Landsat 7 4.1 22:01:33 13° SSE 22:05:38 56° ENE 22:10:18 10° N
Meteor 1-11 4.3 22:00:19 10° S 22:06:03 70° E 22:11:45 10° NNE
Cosmos 292 Rocket 4.0 22:01:26 10° NNW 22:06:10 60° ENE 22:09:59 15° SE
ATLAS 3B R/B 3.8 22:03:29 10° NNW 22:10:10 39° NE 22:16:27 10° ESE
Cosmos 2227 Rocket 3.3 22:08:49 14° SSE 22:12:22 25° ESE 22:16:55 10° NE
Cosmos 1745 Rocket 4.4 22:07:00 12° SSE 22:12:30 47° E 22:18:22 10° NNE
YAOGAN 6 3.5 22:10:10 10° S 22:13:39 44° W 22:17:08 10° NNW
NOSS 3-1 (C) 3.4 22:13:42 10° SSW 22:19:33 68° ESE 22:26:07 10° NE
Cosmos 2333 Rocket 2.5 22:15:04 10° NNW 22:20:47 59° ENE 22:25:14 17° SE
Terra 2.1 22:17:55 17° SE 22:21:29 56° ENE 22:26:09 10° N
Spot 4 4.4 22:18:40 17° SE 22:22:11 46° ENE 22:26:50 10° N
SL-16 R/B 3.6 22:17:59 10° N 22:22:53 29° NE 22:27:44 10° ESE
H-2A R/B 2.2 22:19:46 16° SSE 22:24:02 69° ENE 22:29:28 10° N
Cosmos 1455 2.9 22:22:30 10° N 22:26:06 39° ENE 22:28:13 21° SE
NOSS 0 Rocket 4.0 22:22:27 10° NNW 22:28:39 78° ENE 22:33:18 18° SE
CZ-4B R/B 4.0 22:25:01 10° N 22:30:15 65° WNW 22:35:25 10° SSW
COSMOS 2428 3.4 22:26:56 10° NW 22:32:24 49° WSW 22:37:03 14° S
Cosmos 1869 4.0 22:31:31 10° N 22:35:25 43° ENE 22:37:35 22° SE
Cosmos 2242 Rocket 3.8 22:31:14 10° NNW 22:35:42 71° W 22:39:10 17° S
SPOT 1/Viking Rocket 4.5 22:31:36 10° S 22:36:28 42° W 22:41:22 10° NNW
CZ-4 R/B 4.1 22:33:07 10° N 22:38:05 72° WNW 22:42:55 10° SSW
Cosmos 2297 Rocket 3.1 22:36:45 20° SSE 22:39:30 29° ESE 22:44:19 10° NE
CZ-4C R/B 3.4 22:38:19 19° S 22:40:36 56° W 22:44:01 10° NNW
SAR-Lupe-2 3.5 22:40:27 26° SSE 22:42:22 76° ENE 22:45:58 10° N
Cosmos 2219 Rocket 2.2 22:38:47 10° NNW 22:44:23 76° WSW 22:48:13 21° SSE
Cosmos 1898 Rocket 3.5 22:40:58 10° SSW 22:46:08 82° WNW 22:51:24 10° NNE
ARGOS 4.1 22:41:19 11° S 22:46:16 43° W 22:51:24 10° NNW
Cosmos 1862 Rocket 3.5 22:42:34 10° N 22:46:56 72° E 22:49:24 25° SSE
BREEZE-M DEB (TANK) 1.7 22:44:58 10° WNW 22:46:59 75° SSW 22:48:17 28° ESE
Tiangong 1 3.2 22:46:21 10° SW 22:47:01 14° SSW 22:47:01 14° SSW
Cosmos 1726 3.7 22:46:03 10° NNW 22:49:25 31° W 22:52:27 12° SSW
Cosmos 2150 Rocket 4.3 22:45:30 10° SSW 22:50:56 75° WNW 22:56:27 10° NNE
CARTOSAT-1 3.7 22:48:24 22° S 22:51:10 72° WSW 22:55:30 10° NNW
Sich 1 3.9 22:48:48 10° SSW 22:53:05 48° WNW 22:57:22 10° N
Cosmos 1633 Rocket 3.9 22:51:19 10° SSW 22:55:33 48° WNW 22:59:49 10° N
SeaSat 1 3.4 22:52:14 17° ESE 22:55:41 40° NE 23:00:18 10° NNW
Lacrosse 4 Rocket 2.6 22:54:03 10° NNW 22:58:11 38° NE 23:00:59 18° ESE
FALCON 9 R/B 4.0 22:36:28 10° WSW 22:58:18 44° SSW 23:03:14 20° SE
Cosmos 1271 Rocket 3.9 22:56:04 10° NNW 22:59:37 37° W 23:02:06 17° SSW
Cosmos 192 4.3 22:56:16 10° NNW 23:01:12 81° ENE 23:03:55 27° SSE
Cosmos 1980 3.7 22:56:08 10° NNW 23:01:47 76° WSW 23:05:12 25° SSE
Cosmos 1703 3.9 23:00:50 15° SSW 23:03:56 51° WNW 23:07:47 10° N
DMSP B5D2-2 4.0 23:00:21 10° NNE 23:05:37 88° WNW 23:09:38 17° SSW
Cosmos 2237 Rocket 2.4 23:08:57 10° NNW 23:14:38 66° WSW 23:17:50 26° S
Cosmos 1869 Rocket 4.3 23:16:18 29° SE 23:17:48 38° E 23:21:57 10° NNE
ERBS 2.6 23:18:46 45° SE 23:18:52 45° SE 23:22:13 10° ENE
Cosmos 2082 3.7 23:16:22 17° SSW 23:20:56 81° ESE 23:26:42 10° NNE
NOSS 3-1 (A) 3.9 23:17:10 10° SW 23:23:08 67° NW 23:29:53 10° NE
H-2A R/B 4.1 23:22:36 10° NE 23:25:49 21° E 23:26:29 20° ESE
ALOS 2 3.8 23:25:45 22° ESE 23:27:43 31° ENE 23:31:37 10° N
COSMOS 2455 2.8 23:23:16 10° NNW 23:29:21 87° ENE 23:32:41 28° SE
Cosmos 1933 3.3 23:27:01 10° N 23:31:07 89° WSW 23:32:31 40° S
COS B Rocket 3.3 23:28:16 10° N 23:31:58 67° E 23:33:10 42° SSE
Cosmos 1626 3.0 23:30:01 22° SW 23:32:06 45° WNW 23:35:44 10° N
Cosmos 1241 Rocket 4.4 23:28:41 10° SW 23:34:53 88° WNW 23:41:13 10° NE
BREEZE-M DEB (TANK) 3.4 23:45:34 24° E 23:45:34 24° E 23:47:36 10° ENE
Okean 1-7 3.0 23:40:13 10° N 23:44:31 72° E 23:45:52 42° SSE
ATLAS 2AS CENTAUR R/B 3.0 23:38:04 10° SSW 23:45:34 81° SE 23:53:42 10° NE
Cosmos 1703 Rocket 3.7 23:43:25 10° NNW 23:47:46 66° W 23:49:20 37° SSW
Cosmos 2221 Rocket 3.9 23:48:57 10° NNW 23:53:29 62° W 23:55:11 36° SSW
